Terug naar catalogus

FENGYUN 1C DEB

ActiefSSO
NORAD 36206·DEBRIS·🇨🇳 China

Gelanceerd May 10, 1999 vanaf Taiyuan Satellite Launch Center

Loading…

Volgende Passages (komende 24 uur)

TLE

VersSource: Space-Track

Epoch: Sep 12, 2026, 18:25 UTC

1 36206U 99025DUF 26255.76797174  .00000734  00000-0  34824-3 0  9998
2 36206  98.4629 273.0513 0028738 301.2030  58.6333 14.22230746683157

Volg FENGYUN 1C DEB in realtime met AllMySat

Download on the App Store